| time (UTC) | temp F | wind direction | speed MPH | gust MPH | rain 1hr in | rain 24hr in | rain mn in | humidity % | barometer mb |
| 20260507115559 | 59 | 188 | 3.0 | 10.0 | 0.00 | 0.00 | 0.00 | 63 | 1015.2 |
| 20260507115058 | 59 | 150 | 4.0 | 11.0 | 0.00 | 0.00 | 0.00 | 63 | 1015.2 |
| 20260507114557 | 58 | 170 | 5.0 | 11.0 | 0.00 | 0.00 | 0.00 | 65 | 1015.3 |
| 20260507114058 | 58 | 173 | 5.0 | 11.0 | 0.00 | 0.00 | 0.00 | 64 | 1015.4 |
| 20260507113602 | 58 | 201 | 5.0 | 12.0 | 0.00 | 0.00 | 0.00 | 63 | 1015.4 |
| 20260507113059 | 58 | 165 | 7.0 | 12.0 | 0.00 | 0.00 | 0.00 | 62 | 1015.3 |
| 20260507112559 | 59 | 171 | 4.0 | 12.0 | 0.00 | 0.00 | 0.00 | 65 | 1015.3 |
| 20260507112101 | 59 | 254 | 4.0 | 12.0 | 0.00 | 0.00 | 0.00 | 63 | 1015.3 |
| 20260507111559 | 59 | 175 | 5.0 | 12.0 | 0.00 | 0.00 | 0.00 | 59 | 1015.3 |
| 20260507111058 | 60 | 211 | 6.0 | 12.0 | 0.00 | 0.00 | 0.00 | 64 | 1015.3 |
| 20260507110559 | 60 | 179 | 5.0 | 11.0 | 0.00 | 0.00 | 0.00 | 63 | 1015.3 |
| 20260507110101 | 60 | 146 | 5.0 | 12.0 | 0.00 | 0.00 | 0.00 | 64 | 1015.4 |
| 20260507105558 | 60 | 173 | 4.0 | 12.0 | 0.00 | 0.00 | 0.00 | 63 | 1015.4 |
| 20260507105058 | 59 | 180 | 6.0 | 12.0 | 0.00 | 0.00 | 0.00 | 62 | 1015.4 |
| 20260507104557 | 59 | 184 | 6.0 | 12.0 | 0.00 | 0.00 | 0.00 | 65 | 1015.5 |
| 20260507104059 | 59 | 178 | 6.0 | 10.0 | 0.00 | 0.00 | 0.00 | 64 | 1015.6 |
| 20260507103559 | 59 | 136 | 5.0 | 14.0 | 0.00 | 0.00 | 0.00 | 64 | 1015.4 |
| 20260507103057 | 59 | 156 | 6.0 | 14.0 | 0.00 | 0.00 | 0.00 | 63 | 1015.5 |
| 20260507102558 | 60 | 163 | 5.0 | 10.0 | 0.00 | 0.00 | 0.00 | 65 | 1015.5 |
| 20260507102058 | 60 | 188 | 4.0 | 10.0 | 0.00 | 0.00 | 0.00 | 67 | 1015.6 |
| 20260507101608 | 59 | 214 | 4.0 | 11.0 | 0.00 | 0.00 | 0.00 | 67 | 1015.6 |
| 20260507101058 | 59 | 201 | 5.0 | 11.0 | 0.00 | 0.00 | 0.00 | 68 | 1015.7 |
| 20260507100602 | 59 | 214 | 6.0 | 11.0 | 0.00 | 0.00 | 0.00 | 69 | 1015.7 |
| 20260507100101 | 60 | 203 | 6.0 | 11.0 | 0.00 | 0.00 | 0.00 | 66 | 1015.6 |
| 20260507095600 | 60 | 150 | 4.0 | 10.0 | 0.00 | 0.00 | 0.00 | 68 | 1015.6 |
| 20260507095059 | 60 | 159 | 4.0 | 11.0 | 0.00 | 0.00 | 0.00 | 67 | 1015.6 |
| 20260507094604 | 60 | 186 | 4.0 | 11.0 | 0.00 | 0.00 | 0.00 | 67 | 1015.5 |
| 20260507094101 | 60 | 0 | 4.0 | 9.0 | 0.00 | 0.00 | 0.00 | 70 | 1015.6 |
| 20260507093558 | 60 | 109 | 3.0 | 14.0 | 0.00 | 0.00 | 0.00 | 66 | 1015.4 |
| 20260507093100 | 59 | 135 | 3.0 | 14.0 | 0.00 | 0.00 | 0.00 | 70 | 1015.6 |
| 20260507092559 | 59 | 178 | 3.0 | 11.0 | 0.00 | 0.00 | 0.00 | 70 | 1015.6 |
| 20260507092058 | 59 | 188 | 5.0 | 11.0 | 0.00 | 0.00 | 0.00 | 72 | 1015.6 |
| 20260507091605 | 59 | 134 | 5.0 | 9.0 | 0.00 | 0.00 | 0.00 | 70 | 1015.7 |
| 20260507091058 | 58 | 171 | 5.0 | 9.0 | 0.00 | 0.00 | 0.00 | 74 | 1015.7 |
| 20260507090559 | 57 | 101 | 5.0 | 10.0 | 0.00 | 0.00 | 0.00 | 72 | 1015.8 |
| 20260507090113 | 57 | 178 | 5.0 | 10.0 | 0.00 | 0.00 | 0.00 | 74 | 1015.7 |
| 20260507085559 | 56 | 163 | 4.0 | 9.0 | 0.00 | 0.00 | 0.00 | 73 | 1015.8 |
| 20260507085059 | 56 | 134 | 4.0 | 8.0 | 0.00 | 0.00 | 0.00 | 72 | 1015.7 |
| 20260507084600 | 55 | 182 | 4.0 | 8.0 | 0.00 | 0.00 | 0.00 | 72 | 1015.7 |
| 20260507084059 | 55 | 103 | 4.0 | 8.0 | 0.00 | 0.00 | 0.00 | 73 | 1015.7 |
| 20260507083602 | 55 | 149 | 4.0 | 9.0 | 0.00 | 0.00 | 0.00 | 74 | 1015.7 |
| 20260507083102 | 54 | 128 | 4.0 | 9.0 | 0.00 | 0.00 | 0.00 | 75 | 1015.7 |
| 20260507082559 | 54 | 130 | 2.0 | 10.0 | 0.00 | 0.00 | 0.00 | 75 | 1015.7 |
| 20260507082059 | 53 | 90 | 5.0 | 10.0 | 0.00 | 0.00 | 0.00 | 74 | 1015.6 |
| 20260507081602 | 53 | 150 | 5.0 | 10.0 | 0.00 | 0.00 | 0.00 | 74 | 1015.7 |
| 20260507081059 | 53 | 150 | 3.0 | 9.0 | 0.00 | 0.00 | 0.00 | 76 | 1015.7 |
| 20260507080559 | 53 | 74 | 3.0 | 10.0 | 0.00 | 0.00 | 0.00 | 75 | 1015.7 |
| 20260507075558 | 52 | 96 | 4.0 | 10.0 | 0.00 | 0.00 | 0.00 | 74 | 1015.5 |
| 20260507075058 | 52 | 90 | 3.0 | 8.0 | 0.00 | 0.00 | 0.00 | 75 | 1015.5 |
| 20260507074559 | 52 | 150 | 3.0 | 8.0 | 0.00 | 0.00 | 0.00 | 74 | 1015.5 |
| 20260507074058 | 52 | 103 | 4.0 | 8.0 | 0.00 | 0.00 | 0.00 | 74 | 1015.5 |
| 20260507073558 | 52 | 88 | 1.0 | 8.0 | 0.00 | 0.00 | 0.00 | 75 | 1015.5 |
| 20260507073110 | 52 | 102 | 2.0 | 8.0 | 0.00 | 0.00 | 0.00 | 75 | 1015.4 |
| 20260507072559 | 52 | 0 | 3.0 | 8.0 | 0.00 | 0.00 | 0.00 | 75 | 1015.5 |
| 20260507072058 | 52 | 111 | 3.0 | 8.0 | 0.00 | 0.00 | 0.00 | 76 | 1015.5 |
| 20260507071600 | 51 | 91 | 3.0 | 8.0 | 0.00 | 0.00 | 0.00 | 77 | 1015.4 |
| 20260507071059 | 51 | 82 | 3.0 | 8.0 | 0.00 | 0.00 | 0.00 | 76 | 1015.4 |
| 20260507070559 | 51 | 78 | 2.0 | 8.0 | 0.00 | 0.00 | 0.00 | 76 | 1015.4 |
| 20260507070138 | 51 | 92 | 1.0 | 8.0 | 0.00 | 0.00 | 0.00 | 77 | 1015.4 |
| 20260507065602 | 50 | 114 | 4.0 | 8.0 | 0.00 | 0.00 | 0.00 | 77 | 1015.4 |
| 20260507065058 | 50 | 101 | 2.0 | 9.0 | 0.00 | 0.00 | 0.00 | 77 | 1015.3 |
| 20260507064600 | 50 | 98 | 2.0 | 9.0 | 0.00 | 0.00 | 0.00 | 78 | 1015.4 |
| 20260507064058 | 50 | 94 | 3.0 | 9.0 | 0.00 | 0.00 | 0.00 | 78 | 1015.3 |
| 20260507063559 | 49 | 100 | 1.0 | 8.0 | 0.00 | 0.00 | 0.00 | 78 | 1015.4 |
| 20260507063102 | 49 | 0 | 2.0 | 8.0 | 0.00 | 0.00 | 0.00 | 78 | 1015.4 |
| 20260507062558 | 49 | 98 | 3.0 | 8.0 | 0.00 | 0.00 | 0.00 | 79 | 1015.4 |
| 20260507062101 | 49 | 136 | 2.0 | 4.0 | 0.00 | 0.00 | 0.00 | 80 | 1015.5 |
| 20260507061559 | 48 | 0 | 0.0 | 4.0 | 0.00 | 0.00 | 0.00 | 80 | 1015.4 |
| 20260507061059 | 48 | 121 | 1.0 | 4.0 | 0.00 | 0.00 | 0.00 | 80 | 1015.4 |
| 20260507060558 | 48 | 150 | 0.0 | 4.0 | 0.00 | 0.00 | 0.00 | 80 | 1015.4 |
| 20260507060059 | 48 | 173 | 1.0 | 7.0 | 0.00 | 0.00 | 0.00 | 80 | 1015.3 |
| 20260507055559 | 48 | 123 | 1.0 | 7.0 | 0.00 | 0.00 | 0.00 | 80 | 1015.3 |
| 20260507055059 | 48 | 154 | 2.0 | 8.0 | 0.00 | 0.00 | 0.00 | 80 | 1015.3 |
| 20260507054613 | 47 | 108 | 3.0 | 8.0 | 0.00 | 0.00 | 0.00 | 79 | 1015.1 |
| 20260507054058 | 47 | 150 | 1.0 | 6.0 | 0.00 | 0.00 | 0.00 | 81 | 1015.0 |
| 20260507053600 | 47 | 119 | 2.0 | 5.0 | 0.00 | 0.00 | 0.00 | 81 | 1015.1 |
| 20260507053058 | 47 | 107 | 1.0 | 3.0 | 0.00 | 0.00 | 0.00 | 82 | 1015.0 |
| 20260507052600 | 47 | 86 | 0.0 | 2.0 | 0.00 | 0.00 | 0.00 | 82 | 1015.1 |
| 20260507052058 | 47 | 0 | 0.0 | 2.0 | 0.00 | 0.00 | 0.00 | 83 | 1015.1 |
| 20260507051556 | 47 | 0 | 0.0 | 2.0 | 0.00 | 0.00 | 0.00 | 82 | 1015.1 |
| 20260507051058 | 47 | 0 | 0.0 | 4.0 | 0.00 | 0.00 | 0.00 | 82 | 1015.1 |
| 20260507050558 | 46 | 0 | 0.0 | 4.0 | 0.00 | 0.00 | 0.00 | 81 | 1015.2 |
| 20260507050057 | 46 | 0 | 0.0 | 2.0 | 0.00 | 0.00 | 0.00 | 82 | 1015.0 |
| 20260507045601 | 46 | 0 | 0.0 | 1.0 | 0.00 | 0.00 | 0.00 | 81 | 1015.0 |
| 20260507045058 | 46 | 132 | 0.0 | 1.0 | 0.00 | 0.00 | 0.00 | 82 | 1015.0 |
| 20260507044603 | 46 | 0 | 0.0 | 0.0 | 0.00 | 0.00 | 0.00 | 83 | 1015.0 |
| 20260507044058 | 46 | 0 | 0.0 | 0.0 | 0.00 | 0.00 | 0.00 | 83 | 1015.0 |
| 20260507043558 | 46 | 0 | 0.0 | 0.0 | 0.00 | 0.00 | 0.00 | 82 | 1015.1 |
| 20260507043059 | 46 | 0 | 0.0 | 0.0 | 0.00 | 0.00 | 0.00 | 82 | 1014.9 |
| 20260507042559 | 47 | 0 | 0.0 | 1.0 | 0.00 | 0.00 | 0.00 | 82 | 1014.9 |
| 20260507042100 | 47 | 0 | 0.0 | 1.0 | 0.00 | 0.00 | 0.00 | 82 | 1014.9 |
| 20260507041605 | 47 | 0 | 0.0 | 3.0 | 0.00 | 0.00 | 0.00 | 80 | 1014.9 |
| 20260507041058 | 47 | 126 | 0.0 | 3.0 | 0.00 | 0.00 | 0.00 | 79 | 1014.9 |
| 20260507040601 | 47 | 109 | 0.0 | 3.0 | 0.00 | 0.00 | 0.00 | 78 | 1015.0 |
| 20260507040058 | 47 | 0 | 1.0 | 2.0 | 0.00 | 0.00 | 0.00 | 78 | 1015.0 |
| 20260507035558 | 47 | 0 | 0.0 | 2.0 | 0.00 | 0.00 | 0.00 | 79 | 1014.9 |
| 20260507035058 | 47 | 0 | 0.0 | 2.0 | 0.00 | 0.00 | 0.00 | 79 | 1015.0 |
| 20260507034604 | 47 | 0 | 0.0 | 4.0 | 0.00 | 0.00 | 0.00 | 79 | 1015.0 |
| 20260507034057 | 47 | 159 | 0.0 | 4.0 | 0.00 | 0.00 | 0.00 | 78 | 1014.9 |
| 20260507033558 | 47 | 144 | 0.0 | 2.0 | 0.00 | 0.00 | 0.00 | 76 | 1014.9 |
| 20260507033057 | 47 | 0 | 0.0 | 3.0 | 0.00 | 0.00 | 0.00 | 76 | 1014.9 |
| 20260507032559 | 47 | 0 | 0.0 | 3.0 | 0.00 | 0.00 | 0.00 | 76 | 1014.9 |
| 20260507032058 | 47 | 121 | 0.0 | 3.0 | 0.00 | 0.00 | 0.00 | 76 | 1014.9 |
| 20260507031600 | 47 | 0 | 0.0 | 3.0 | 0.00 | 0.00 | 0.00 | 77 | 1014.9 |
| 20260507031103 | 47 | 136 | 0.0 | 3.0 | 0.00 | 0.00 | 0.00 | 76 | 1014.8 |
| 20260507030559 | 47 | 128 | 0.0 | 3.0 | 0.00 | 0.00 | 0.00 | 77 | 1014.8 |
| 20260507030108 | 47 | 123 | 0.0 | 3.0 | 0.00 | 0.00 | 0.00 | 77 | 1014.9 |
| 20260507025558 | 47 | 0 | 1.0 | 3.0 | 0.00 | 0.00 | 0.00 | 76 | 1014.9 |
| 20260507025058 | 47 | 153 | 1.0 | 4.0 | 0.00 | 0.00 | 0.00 | 77 | 1014.9 |
| 20260507024617 | 47 | 129 | 1.0 | 4.0 | 0.00 | 0.00 | 0.00 | 77 | 1014.9 |
| 20260507024102 | 47 | 148 | 0.0 | 4.0 | 0.00 | 0.00 | 0.00 | 76 | 1014.9 |
| 20260507023601 | 48 | 138 | 1.0 | 4.0 | 0.00 | 0.00 | 0.00 | 76 | 1014.8 |
| 20260507023058 | 48 | 122 | 1.0 | 4.0 | 0.00 | 0.00 | 0.00 | 76 | 1014.8 |
| 20260507022558 | 48 | 155 | 2.0 | 4.0 | 0.00 | 0.00 | 0.00 | 75 | 1014.8 |
| 20260507022059 | 48 | 139 | 1.0 | 4.0 | 0.00 | 0.00 | 0.00 | 75 | 1014.7 |
| 20260507021617 | 48 | 125 | 2.0 | 4.0 | 0.00 | 0.00 | 0.00 | 75 | 1014.7 |
| 20260507021101 | 48 | 124 | 2.0 | 4.0 | 0.00 | 0.00 | 0.00 | 75 | 1014.8 |
| 20260507020559 | 48 | 108 | 2.0 | 4.0 | 0.00 | 0.00 | 0.00 | 75 | 1014.7 |
| 20260507020106 | 48 | 164 | 1.0 | 4.0 | 0.00 | 0.00 | 0.00 | 74 | 1014.8 |
| 20260507015558 | 48 | 0 | 2.0 | 4.0 | 0.00 | 0.00 | 0.00 | 75 | 1014.9 |
| 20260507015100 | 48 | 127 | 1.0 | 6.0 | 0.00 | 0.00 | 0.00 | 74 | 1014.8 |
| 20260507014615 | 48 | 139 | 1.0 | 6.0 | 0.00 | 0.00 | 0.00 | 74 | 1014.8 |
| 20260507014059 | 48 | 142 | 1.0 | 3.0 | 0.00 | 0.00 | 0.00 | 75 | 1014.8 |
| 20260507013558 | 48 | 90 | 1.0 | 3.0 | 0.00 | 0.00 | 0.00 | 74 | 1014.7 |
| 20260507013100 | 48 | 0 | 0.0 | 3.0 | 0.00 | 0.00 | 0.00 | 74 | 1014.8 |
| 20260507012607 | 48 | 115 | 0.0 | 4.0 | 0.00 | 0.00 | 0.00 | 74 | 1014.7 |
| 20260507012058 | 48 | 0 | 1.0 | 5.0 | 0.00 | 0.00 | 0.00 | 74 | 1014.6 |
| 20260507011558 | 48 | 117 | 2.0 | 5.0 | 0.00 | 0.00 | 0.00 | 74 | 1014.8 |
| 20260507011100 | 48 | 142 | 2.0 | 4.0 | 0.00 | 0.00 | 0.00 | 74 | 1014.8 |
| 20260507010602 | 48 | 114 | 1.0 | 5.0 | 0.00 | 0.00 | 0.00 | 73 | 1014.7 |
| 20260507010116 | 48 | 134 | 1.0 | 5.0 | 0.00 | 0.00 | 0.00 | 72 | 1014.7 |
| 20260507005557 | 48 | 139 | 0.0 | 4.0 | 0.00 | 0.00 | 0.00 | 72 | 1014.8 |
| 20260507005057 | 48 | 105 | 1.0 | 4.0 | 0.00 | 0.00 | 0.00 | 71 | 1014.7 |
| 20260507004557 | 48 | 142 | 1.0 | 5.0 | 0.00 | 0.00 | 0.00 | 71 | 1014.8 |
| 20260507004059 | 49 | 132 | 1.0 | 5.0 | 0.00 | 0.00 | 0.00 | 71 | 1014.8 |
| 20260507003559 | 49 | 115 | 1.0 | 4.0 | 0.00 | 0.00 | 0.00 | 71 | 1014.8 |
| 20260507003100 | 49 | 135 | 0.0 | 4.0 | 0.00 | 0.00 | 0.00 | 71 | 1014.9 |
| 20260507002558 | 49 | 123 | 1.0 | 5.0 | 0.00 | 0.00 | 0.00 | 70 | 1014.9 |
| 20260507002058 | 49 | 128 | 1.0 | 6.0 | 0.00 | 0.00 | 0.00 | 70 | 1014.9 |
| 20260507001606 | 49 | 129 | 2.0 | 6.0 | 0.00 | 0.00 | 0.00 | 70 | 1015.0 |
| 20260507001101 | 49 | 126 | 1.0 | 4.0 | 0.00 | 0.00 | 0.00 | 69 | 1014.9 |
| 20260507000558 | 49 | 0 | 1.0 | 4.0 | 0.00 | 0.00 | 0.00 | 69 | 1015.0 |
| 20260507000058 | 49 | 78 | 1.0 | 4.0 | 0.00 | 0.00 | 0.00 | 69 | 1014.9 |
| 20260506235558 | 49 | 90 | 0.0 | 3.0 | 0.00 | 0.00 | 0.00 | 68 | 1015.0 |
| 20260506235058 | 49 | 107 | 1.0 | 3.0 | 0.00 | 0.00 | 0.00 | 69 | 1015.1 |
| 20260506234600 | 49 | 82 | 2.0 | 3.0 | 0.00 | 0.00 | 0.00 | 69 | 1015.1 |
| 20260506234059 | 49 | 130 | 1.0 | 3.0 | 0.00 | 0.00 | 0.00 | 69 | 1015.0 |
| 20260506233559 | 49 | 0 | 1.0 | 3.0 | 0.00 | 0.00 | 0.00 | 69 | 1015.0 |
| 20260506233059 | 49 | 117 | 0.0 | 2.0 | 0.00 | 0.00 | 0.00 | 69 | 1015.0 |
| 20260506232558 | 49 | 0 | 1.0 | 5.0 | 0.00 | 0.00 | 0.00 | 69 | 1014.9 |
| 20260506232058 | 49 | 0 | 0.0 | 5.0 | 0.00 | 0.00 | 0.00 | 70 | 1014.9 |
| 20260506231600 | 50 | 132 | 1.0 | 4.0 | 0.00 | 0.00 | 0.00 | 66 | 1015.0 |
| 20260506231059 | 50 | 136 | 1.0 | 7.0 | 0.00 | 0.00 | 0.00 | 66 | 1015.0 |
| 20260506230600 | 50 | 0 | 2.0 | 7.0 | 0.00 | 0.00 | 0.00 | 65 | 1015.0 |
| 20260506230105 | 50 | 110 | 2.0 | 6.0 | 0.00 | 0.00 | 0.00 | 65 | 1014.9 |
| 20260506225558 | 50 | 0 | 1.0 | 6.0 | 0.00 | 0.00 | 0.00 | 65 | 1015.0 |
| 20260506225059 | 50 | 113 | 1.0 | 4.0 | 0.00 | 0.00 | 0.00 | 64 | 1014.9 |
| 20260506224601 | 50 | 77 | 1.0 | 4.0 | 0.00 | 0.00 | 0.00 | 63 | 1015.0 |
| 20260506224101 | 50 | 98 | 1.0 | 6.0 | 0.00 | 0.00 | 0.00 | 64 | 1014.9 |
| 20260506223559 | 50 | 105 | 2.0 | 6.0 | 0.00 | 0.00 | 0.00 | 63 | 1015.0 |
| 20260506223059 | 51 | 90 | 1.0 | 5.0 | 0.00 | 0.00 | 0.00 | 63 | 1014.9 |
| 20260506222558 | 51 | 88 | 1.0 | 6.0 | 0.00 | 0.00 | 0.00 | 62 | 1014.9 |
| 20260506222059 | 51 | 128 | 1.0 | 7.0 | 0.00 | 0.00 | 0.00 | 61 | 1014.8 |
| 20260506221601 | 51 | 103 | 2.0 | 7.0 | 0.00 | 0.00 | 0.00 | 60 | 1014.9 |
| 20260506221101 | 51 | 73 | 3.0 | 7.0 | 0.00 | 0.00 | 0.00 | 61 | 1014.7 |
| 20260506220559 | 51 | 98 | 2.0 | 7.0 | 0.00 | 0.00 | 0.00 | 61 | 1014.7 |
| 20260506220058 | 51 | 79 | 3.0 | 6.0 | 0.00 | 0.00 | 0.00 | 62 | 1014.7 |
| 20260506215559 | 52 | 127 | 2.0 | 6.0 | 0.00 | 0.00 | 0.00 | 61 | 1014.6 |
| 20260506215058 | 52 | 113 | 2.0 | 6.0 | 0.00 | 0.00 | 0.00 | 61 | 1014.7 |
| 20260506214609 | 52 | 86 | 1.0 | 6.0 | 0.00 | 0.00 | 0.00 | 60 | 1014.7 |
| 20260506214059 | 52 | 110 | 2.0 | 7.0 | 0.00 | 0.00 | 0.00 | 60 | 1014.7 |
| 20260506213559 | 52 | 57 | 3.0 | 7.0 | 0.00 | 0.00 | 0.00 | 59 | 1014.7 |
| 20260506213102 | 52 | 85 | 3.0 | 7.0 | 0.00 | 0.00 | 0.00 | 60 | 1014.6 |
| 20260506212558 | 52 | 80 | 3.0 | 6.0 | 0.00 | 0.00 | 0.00 | 59 | 1014.6 |
| 20260506212059 | 53 | 75 | 3.0 | 8.0 | 0.00 | 0.00 | 0.00 | 60 | 1014.7 |
| 20260506211558 | 53 | 57 | 3.0 | 8.0 | 0.00 | 0.00 | 0.00 | 59 | 1014.7 |
| 20260506211059 | 53 | 65 | 3.0 | 7.0 | 0.00 | 0.00 | 0.00 | 59 | 1014.5 |
| 20260506210559 | 53 | 73 | 2.0 | 6.0 | 0.00 | 0.00 | 0.00 | 59 | 1014.4 |
| 20260506210100 | 53 | 83 | 3.0 | 6.0 | 0.00 | 0.00 | 0.00 | 59 | 1014.4 |
| 20260506205603 | 53 | 82 | 3.0 | 7.0 | 0.00 | 0.00 | 0.00 | 59 | 1014.4 |
| 20260506205059 | 53 | 90 | 3.0 | 7.0 | 0.00 | 0.00 | 0.00 | 59 | 1014.3 |
| 20260506204601 | 53 | 106 | 2.0 | 6.0 | 0.00 | 0.00 | 0.00 | 60 | 1014.3 |
| 20260506204059 | 52 | 93 | 2.0 | 6.0 | 0.00 | 0.00 | 0.00 | 61 | 1014.3 |
| 20260506203558 | 52 | 57 | 2.0 | 4.0 | 0.00 | 0.00 | 0.00 | 64 | 1014.3 |
| 20260506203108 | 53 | 89 | 1.0 | 3.0 | 0.00 | 0.00 | 0.00 | 65 | 1014.3 |
| 20260506202559 | 53 | 78 | 1.0 | 3.0 | 0.00 | 0.00 | 0.00 | 65 | 1014.2 |
| 20260506202059 | 53 | 78 | 1.0 | 3.0 | 0.00 | 0.00 | 0.00 | 64 | 1014.3 |
| 20260506201620 | 53 | 62 | 1.0 | 3.0 | 0.00 | 0.00 | 0.00 | 64 | 1014.2 |
| 20260506201059 | 53 | 0 | 1.0 | 3.0 | 0.00 | 0.00 | 0.00 | 64 | 1014.2 |
| 20260506200558 | 53 | 62 | 1.0 | 3.0 | 0.00 | 0.00 | 0.00 | 65 | 1014.2 |
| 20260506200058 | 53 | 62 | 1.0 | 2.0 | 0.00 | 0.00 | 0.00 | 64 | 1014.2 |
| 20260506195559 | 54 | 62 | 1.0 | 2.0 | 0.00 | 0.00 | 0.00 | 65 | 1014.0 |
| 20260506195058 | 54 | 62 | 1.0 | 2.0 | 0.00 | 0.00 | 0.00 | 64 | 1014.0 |
| 20260506194603 | 54 | 62 | 1.0 | 2.0 | 0.00 | 0.00 | 0.00 | 66 | 1014.0 |
| 20260506194101 | 55 | 51 | 1.0 | 3.0 | 0.00 | 0.00 | 0.00 | 65 | 1014.0 |
| 20260506193559 | 55 | 46 | 1.0 | 3.0 | 0.00 | 0.00 | 0.00 | 63 | 1014.0 |
| 20260506193107 | 55 | 49 | 1.0 | 3.0 | 0.00 | 0.00 | 0.00 | 60 | 1014.0 |
| 20260506192558 | 56 | 44 | 0.0 | 2.0 | 0.00 | 0.00 | 0.00 | 60 | 1013.9 |
| 20260506192059 | 56 | 0 | 1.0 | 2.0 | 0.00 | 0.00 | 0.00 | 60 | 1013.9 |
| 20260506191600 | 57 | 94 | 0.0 | 1.0 | 0.00 | 0.00 | 0.00 | 59 | 1014.0 |
| 20260506191059 | 57 | 0 | 0.0 | 1.0 | 0.00 | 0.00 | 0.00 | 59 | 1013.9 |
| 20260506190559 | 57 | 94 | 0.0 | 1.0 | 0.00 | 0.00 | 0.00 | 59 | 1014.0 |
| 20260506190058 | 58 | 0 | 0.0 | 2.0 | 0.00 | 0.00 | 0.00 | 57 | 1013.9 |
| 20260506185559 | 58 | 94 | 0.0 | 2.0 | 0.00 | 0.00 | 0.00 | 57 | 1014.0 |
| 20260506185059 | 58 | 0 | 0.0 | 2.0 | 0.00 | 0.00 | 0.00 | 54 | 1013.9 |
| 20260506184602 | 58 | 94 | 0.0 | 2.0 | 0.00 | 0.00 | 0.00 | 55 | 1013.9 |
| 20260506184058 | 58 | 94 | 0.0 | 2.0 | 0.00 | 0.00 | 0.00 | 55 | 1013.9 |
| 20260506183559 | 58 | 90 | 0.0 | 2.0 | 0.00 | 0.00 | 0.00 | 52 | 1013.9 |
| 20260506183100 | 58 | 106 | 0.0 | 2.0 | 0.00 | 0.00 | 0.00 | 51 | 1013.9 |
| 20260506182558 | 59 | 0 | 1.0 | 3.0 | 0.00 | 0.00 | 0.00 | 52 | 1013.9 |
| 20260506182058 | 59 | 0 | 1.0 | 4.0 | 0.00 | 0.00 | 0.00 | 50 | 1013.9 |
| 20260506181559 | 59 | 97 | 1.0 | 4.0 | 0.00 | 0.00 | 0.00 | 50 | 1013.9 |
| 20260506181059 | 59 | 96 | 1.0 | 4.0 | 0.00 | 0.00 | 0.00 | 52 | 1013.9 |
| 20260506180559 | 59 | 63 | 0.0 | 3.0 | 0.00 | 0.00 | 0.00 | 50 | 1013.9 |
| 20260506180100 | 59 | 80 | 1.0 | 3.0 | 0.00 | 0.00 | 0.00 | 49 | 1013.9 |
| 20260506175558 | 59 | 105 | 1.0 | 4.0 | 0.00 | 0.00 | 0.00 | 50 | 1013.8 |
| 20260506175058 | 59 | 84 | 2.0 | 4.0 | 0.00 | 0.00 | 0.00 | 47 | 1013.7 |
| 20260506174558 | 59 | 96 | 1.0 | 6.0 | 0.00 | 0.00 | 0.00 | 51 | 1013.7 |
| 20260506174058 | 59 | 79 | 1.0 | 6.0 | 0.00 | 0.00 | 0.00 | 50 | 1013.6 |
| 20260506173557 | 60 | 78 | 2.0 | 6.0 | 0.00 | 0.00 | 0.00 | 48 | 1013.6 |
| 20260506173123 | 60 | 83 | 1.0 | 7.0 | 0.00 | 0.00 | 0.00 | 51 | 1013.6 |
| 20260506172558 | 60 | 134 | 2.0 | 7.0 | 0.00 | 0.00 | 0.00 | 48 | 1013.6 |
| 20260506172058 | 60 | 96 | 2.0 | 7.0 | 0.00 | 0.00 | 0.00 | 47 | 1013.5 |
| 20260506171559 | 60 | 144 | 2.0 | 7.0 | 0.00 | 0.00 | 0.00 | 49 | 1013.4 |
| 20260506171058 | 60 | 81 | 3.0 | 7.0 | 0.00 | 0.00 | 0.00 | 51 | 1013.5 |
| 20260506170602 | 60 | 77 | 1.0 | 4.0 | 0.00 | 0.00 | 0.00 | 49 | 1013.4 |
| 20260506165558 | 60 | 90 | 2.0 | 7.0 | 0.00 | 0.00 | 0.00 | 49 | 1013.3 |
| 20260506165059 | 60 | 74 | 2.0 | 7.0 | 0.00 | 0.00 | 0.00 | 51 | 1013.3 |
| 20260506164558 | 60 | 0 | 2.0 | 6.0 | 0.00 | 0.00 | 0.00 | 44 | 1013.4 |
| 20260506164100 | 60 | 97 | 0.0 | 5.0 | 0.00 | 0.00 | 0.00 | 48 | 1013.3 |
| 20260506163558 | 60 | 76 | 2.0 | 7.0 | 0.00 | 0.00 | 0.00 | 47 | 1013.4 |
| 20260506163109 | 61 | 157 | 2.0 | 7.0 | 0.00 | 0.00 | 0.00 | 46 | 1013.4 |
| 20260506162558 | 61 | 107 | 2.0 | 7.0 | 0.00 | 0.00 | 0.00 | 49 | 1013.4 |
| 20260506162058 | 62 | 86 | 2.0 | 8.0 | 0.00 | 0.00 | 0.00 | 43 | 1013.4 |
| 20260506161605 | 63 | 72 | 2.0 | 9.0 | 0.00 | 0.00 | 0.00 | 46 | 1013.5 |
| 20260506161057 | 63 | 69 | 3.0 | 9.0 | 0.00 | 0.00 | 0.00 | 44 | 1013.5 |
| 20260506160558 | 62 | 109 | 2.0 | 9.0 | 0.00 | 0.00 | 0.00 | 43 | 1013.5 |
| 20260506155600 | 62 | 300 | 2.0 | 8.0 | 0.00 | 0.00 | 0.00 | 46 | 1013.5 |
| 20260506155058 | 62 | 115 | 1.0 | 7.0 | 0.00 | 0.00 | 0.00 | 49 | 1013.6 |
| 20260506154607 | 62 | 9 | 2.0 | 8.0 | 0.00 | 0.00 | 0.00 | 45 | 1013.7 |
| 20260506154059 | 62 | 325 | 0.0 | 10.0 | 0.00 | 0.00 | 0.00 | 45 | 1013.6 |
| 20260506153558 | 63 | 12 | 3.0 | 12.0 | 0.00 | 0.00 | 0.00 | 44 | 1013.7 |
| 20260506153058 | 62 | 91 | 4.0 | 12.0 | 0.00 | 0.00 | 0.00 | 47 | 1013.7 |
| 20260506152558 | 63 | 115 | 2.0 | 10.0 | 0.00 | 0.00 | 0.00 | 45 | 1013.6 |
| 20260506152058 | 62 | 348 | 3.0 | 10.0 | 0.00 | 0.00 | 0.00 | 43 | 1013.6 |
| 20260506151602 | 62 | 24 | 4.0 | 10.0 | 0.00 | 0.00 | 0.00 | 44 | 1013.6 |
| 20260506151058 | 62 | 313 | 2.0 | 7.0 | 0.00 | 0.00 | 0.00 | 44 | 1013.7 |
| 20260506150601 | 61 | 0 | 2.0 | 12.0 | 0.00 | 0.00 | 0.00 | 44 | 1013.6 |
| 20260506145600 | 61 | 83 | 5.0 | 10.0 | 0.00 | 0.00 | 0.00 | 45 | 1013.6 |
| 20260506145057 | 60 | 28 | 1.0 | 8.0 | 0.00 | 0.00 | 0.00 | 48 | 1013.7 |
| 20260506144601 | 60 | 69 | 4.0 | 9.0 | 0.00 | 0.00 | 0.00 | 45 | 1013.7 |
| 20260506144058 | 62 | 74 | 3.0 | 9.0 | 0.00 | 0.00 | 0.00 | 44 | 1013.8 |
| 20260506143559 | 62 | 97 | 2.0 | 7.0 | 0.00 | 0.00 | 0.00 | 46 | 1013.7 |
| 20260506143108 | 62 | 96 | 2.0 | 8.0 | 0.00 | 0.00 | 0.00 | 50 | 1013.7 |
| 20260506142559 | 61 | 151 | 2.0 | 10.0 | 0.00 | 0.00 | 0.00 | 55 | 1013.9 |
| 20260506142058 | 61 | 98 | 3.0 | 11.0 | 0.00 | 0.00 | 0.00 | 45 | 1013.9 |
| 20260506141559 | 62 | 61 | 7.0 | 11.0 | 0.00 | 0.00 | 0.00 | 44 | 1013.9 |
| 20260506141100 | 62 | 5 | 2.0 | 9.0 | 0.00 | 0.00 | 0.00 | 47 | 1013.9 |
| 20260506140601 | 61 | 89 | 2.0 | 7.0 | 0.00 | 0.00 | 0.00 | 49 | 1014.0 |
| 20260506135558 | 59 | 121 | 1.0 | 10.0 | 0.00 | 0.00 | 0.00 | 49 | 1014.1 |
| 20260506135058 | 59 | 67 | 3.0 | 7.0 | 0.00 | 0.00 | 0.00 | 48 | 1014.2 |
| 20260506134559 | 60 | 83 | 3.0 | 7.0 | 0.00 | 0.00 | 0.00 | 49 | 1014.2 |
| 20260506134059 | 60 | 67 | 2.0 | 11.0 | 0.00 | 0.00 | 0.00 | 49 | 1014.2 |
| 20260506133601 | 60 | 84 | 3.0 | 11.0 | 0.00 | 0.00 | 0.00 | 47 | 1014.2 |
| 20260506133104 | 61 | 132 | 4.0 | 11.0 | 0.00 | 0.00 | 0.00 | 48 | 1014.2 |
| 20260506132557 | 61 | 288 | 3.0 | 9.0 | 0.00 | 0.00 | 0.00 | 47 | 1014.1 |
| 20260506132057 | 61 | 5 | 2.0 | 9.0 | 0.00 | 0.00 | 0.00 | 52 | 1014.2 |
| 20260506131602 | 60 | 84 | 2.0 | 9.0 | 0.00 | 0.00 | 0.00 | 49 | 1014.3 |
| 20260506131058 | 60 | 347 | 3.0 | 10.0 | 0.00 | 0.00 | 0.00 | 49 | 1014.3 |
| 20260506130559 | 60 | 296 | 4.0 | 12.0 | 0.00 | 0.00 | 0.00 | 50 | 1014.2 |
| 20260506130105 | 60 | 32 | 2.0 | 12.0 | 0.00 | 0.00 | 0.00 | 47 | 1014.3 |
| 20260506125558 | 60 | 146 | 2.0 | 9.0 | 0.00 | 0.00 | 0.00 | 52 | 1014.3 |
| 20260506125058 | 60 | 82 | 4.0 | 10.0 | 0.00 | 0.00 | 0.00 | 46 | 1014.4 |
| 20260506124601 | 60 | 113 | 5.0 | 11.0 | 0.00 | 0.00 | 0.00 | 52 | 1014.3 |
| 20260506124101 | 60 | 74 | 5.0 | 11.0 | 0.00 | 0.00 | 0.00 | 50 | 1014.3 |
| 20260506123558 | 60 | 96 | 4.0 | 12.0 | 0.00 | 0.00 | 0.00 | 52 | 1014.2 |
| 20260506123058 | 60 | 83 | 7.0 | 12.0 | 0.00 | 0.00 | 0.00 | 48 | 1014.2 |
| 20260506122558 | 60 | 89 | 4.0 | 12.0 | 0.00 | 0.00 | 0.00 | 48 | 1014.1 |
| 20260506122058 | 60 | 46 | 5.0 | 11.0 | 0.00 | 0.00 | 0.00 | 51 | 1014.2 |
| 20260506121606 | 60 | 52 | 4.0 | 10.0 | 0.00 | 0.00 | 0.00 | 48 | 1014.1 |
| 20260506121058 | 60 | 13 | 4.0 | 11.0 | 0.00 | 0.00 | 0.00 | 48 | 1014.2 |
| 20260506120558 | 59 | 0 | 5.0 | 11.0 | 0.00 | 0.00 | 0.00 | 58 | 1014.2 |
| 20260506120111 | 59 | 55 | 6.0 | 12.0 | 0.00 | 0.00 | 0.00 | 51 | 1014.2 |